• In Germany
  • List of Countries
  • For 7 days
  • Water Temperature
  • Satellite Maps
  • Weather Map
  • Weather Widgets
  • user-avatar
    Login

    Hourly Weather Leimen

    Today, 18 September, Tuesday

    Time Temperature Precipitation Wind Pressure Humidity
    00:00 +20°C° 0 mm 1 mps 752 mmHg 58%
    01:00 +20°C° 0 mm 1 mps 752 mmHg 59%
    02:00 +19°C° 0 mm 1 mps 752 mmHg 62%
    03:00 +19°C° 0 mm 1 mps 752 mmHg 65%
    04:00 +19°C° 0 mm 1 mps 751 mmHg 68%
    05:00 +19°C° 0 mm 1 mps 751 mmHg 69%
    06:00 +19°C° 0 mm 1 mps 752 mmHg 71%
    07:00 +19°C° 0 mm 1 mps 752 mmHg 66%
    08:00 +20°C° 0 mm 2 mps 752 mmHg 60%
    09:00 +23°C° 0 mm 2 mps 752 mmHg 54%
    10:00 +26°C° 0 mm 2 mps 752 mmHg 48%
    11:00 +27°C° 0 mm 2 mps 752 mmHg 46%
    12:00 +28°C° 0 mm 3 mps 752 mmHg 43%
    13:00 +30°C° 0 mm 3 mps 752 mmHg 40%
    14:00 +30°C° 0 mm 3 mps 751 mmHg 42%
    15:00 +30°C° 0 mm 3 mps 751 mmHg 43%
    16:00 +30°C° 0 mm 3 mps 751 mmHg 44%
    17:00 +28°C° 0 mm 2 mps 751 mmHg 51%
    18:00 +26°C° 0 mm 2 mps 751 mmHg 57%
    19:00 +25°C° 0 mm 1 mps 752 mmHg 63%
    20:00 +24°C° 0.2 mm 1 mps 752 mmHg 66%
    21:00 +23°C° 0.2 mm 1 mps 752 mmHg 69%
    22:00 +22°C° 0.2 mm 1 mps 753 mmHg 72%
    23:00 +22°C° 0.2 mm 1 mps 753 mmHg 74%

    Tomorrow, 19 September, Wednesday

    Time Temperature Precipitation Wind Pressure Humidity
    00:00 +21°C° 0.2 mm 1 mps 753 mmHg 76%
    01:00 +21°C° 0.2 mm 1 mps 753 mmHg 77%
    02:00 +21°C° 0.1 mm 1 mps 753 mmHg 78%
    03:00 +20°C° 0.1 mm 1 mps 753 mmHg 79%
    04:00 +20°C° 0.1 mm 1 mps 753 mmHg 80%
    05:00 +20°C° 0 mm 1 mps 753 mmHg 80%
    06:00 +20°C° 0 mm 1 mps 754 mmHg 80%
    07:00 +20°C° 0 mm 1 mps 754 mmHg 80%
    08:00 +22°C° 0 mm 1 mps 754 mmHg 72%
    09:00 +24°C° 0 mm 1 mps 754 mmHg 64%
    10:00 +26°C° 0 mm 2 mps 754 mmHg 57%
    11:00 +27°C° 0 mm 2 mps 754 mmHg 52%
    12:00 +29°C° 0 mm 2 mps 754 mmHg 47%
    13:00 +30°C° 0 mm 2 mps 754 mmHg 43%
    14:00 +30°C° 0 mm 2 mps 754 mmHg 43%
    15:00 +30°C° 0 mm 2 mps 753 mmHg 43%
    16:00 +30°C° 0 mm 2 mps 753 mmHg 43%
    17:00 +28°C° 0 mm 2 mps 753 mmHg 49%
    18:00 +27°C° 0 mm 1 mps 753 mmHg 55%
    19:00 +25°C° 0 mm 1 mps 754 mmHg 61%
    20:00 +24°C° 0 mm 1 mps 754 mmHg 63%
    21:00 +23°C° 0 mm 1 mps 754 mmHg 66%
    22:00 +23°C° 0 mm 1 mps 754 mmHg 69%
    23:00 +22°C° 0 mm 1 mps 754 mmHg 71%

    Day after tomorrow, 20 September, Thursday

    Time Temperature Precipitation Wind Pressure Humidity
    00:00 +22°C° 0 mm 1 mps 754 mmHg 73%
    01:00 +21°C° 0 mm 1 mps 754 mmHg 75%
    02:00 +21°C° 0 mm 1 mps 754 mmHg 76%
    03:00 +21°C° 0 mm 1 mps 754 mmHg 78%
    04:00 +20°C° 0 mm 1 mps 754 mmHg 80%
    05:00 +20°C° 0 mm 1 mps 754 mmHg 80%
    06:00 +20°C° 0 mm 1 mps 754 mmHg 80%
    07:00 +20°C° 0 mm 1 mps 754 mmHg 81%
    08:00 +22°C° 0 mm 1 mps 754 mmHg 73%
    09:00 +24°C° 0 mm 1 mps 754 mmHg 65%
    10:00 +26°C° 0 mm 2 mps 754 mmHg 57%
    11:00 +27°C° 0 mm 2 mps 754 mmHg 53%
    12:00 +28°C° 0 mm 2 mps 753 mmHg 49%
    13:00 +29°C° 0 mm 2 mps 753 mmHg 44%
    14:00 +29°C° 0 mm 2 mps 752 mmHg 43%
    15:00 +29°C° 0 mm 2 mps 752 mmHg 42%
    16:00 +30°C° 0 mm 2 mps 751 mmHg 41%
    17:00 +28°C° 0 mm 2 mps 751 mmHg 47%
    18:00 +26°C° 0 mm 1 mps 751 mmHg 52%
    19:00 +24°C° 0 mm 1 mps 750 mmHg 58%
    20:00 +23°C° 0 mm 1 mps 750 mmHg 59%
    21:00 +23°C° 0 mm 1 mps 750 mmHg 61%
    22:00 +21°C° 0 mm 2 mps 750 mmHg 63%
    23:00 +21°C° 0 mm 2 mps 750 mmHg 65%

    21 September, Friday

    Time Temperature Precipitation Wind Pressure Humidity
    00:00 +21°C° 0 mm 2 mps 749 mmHg 67%
    01:00 +20°C° 0 mm 2 mps 749 mmHg 70%
    02:00 +20°C° 0 mm 2 mps 748 mmHg 69%
    03:00 +20°C° 0 mm 2 mps 748 mmHg 68%
    04:00 +20°C° 0 mm 3 mps 748 mmHg 68%
    05:00 +20°C° 0 mm 3 mps 748 mmHg 66%
    06:00 +21°C° 0 mm 3 mps 748 mmHg 64%
    07:00 +21°C° 0 mm 4 mps 748 mmHg 62%
    08:00 +22°C° 0 mm 4 mps 747 mmHg 60%
    09:00 +23°C° 0 mm 5 mps 747 mmHg 57%
    10:00 +24°C° 0 mm 6 mps 747 mmHg 54%
    11:00 +24°C° 0.1 mm 6 mps 747 mmHg 52%
    12:00 +26°C° 0.1 mm 6 mps 747 mmHg 50%
    13:00 +26°C° 0.1 mm 6 mps 746 mmHg 49%
    14:00 +23°C° 0.8 mm 6 mps 747 mmHg 58%
    15:00 +21°C° 0.8 mm 5 mps 747 mmHg 68%
    16:00 +17°C° 0.8 mm 5 mps 747 mmHg 77%
    17:00 +16°C° 0.9 mm 5 mps 749 mmHg 78%
    18:00 +15°C° 0.9 mm 5 mps 750 mmHg 79%
    19:00 +13°C° 0.9 mm 4 mps 751 mmHg 79%
    20:00 +13°C° 0 mm 4 mps 752 mmHg 77%
    21:00 +12°C° 0 mm 4 mps 754 mmHg 75%
    22:00 +11°C° 0 mm 4 mps 755 mmHg 73%
    23:00 +11°C° 0 mm 3 mps 756 mmHg 73%

    22 September, Saturday

    Time Temperature Precipitation Wind Pressure Humidity
    00:00 +10°C° 0 mm 3 mps 757 mmHg 73%
    01:00 +10°C° 0 mm 3 mps 757 mmHg 73%
    02:00 +9°C° 0 mm 3 mps 758 mmHg 74%
    03:00 +9°C° 0 mm 3 mps 758 mmHg 76%
    04:00 +9°C° 0 mm 3 mps 758 mmHg 77%
    05:00 +9°C° 0 mm 2 mps 759 mmHg 78%
    06:00 +9°C° 0 mm 2 mps 759 mmHg 79%
    07:00 +9°C° 0 mm 2 mps 759 mmHg 80%
    08:00 +10°C° 0 mm 2 mps 759 mmHg 72%
    09:00 +13°C° 0 mm 2 mps 760 mmHg 64%
    10:00 +14°C° 0 mm 3 mps 760 mmHg 56%
    11:00 +16°C° 0 mm 3 mps 759 mmHg 51%
    12:00 +17°C° 0 mm 3 mps 759 mmHg 46%
    13:00 +18°C° 0 mm 3 mps 758 mmHg 40%
    14:00 +18°C° 0 mm 3 mps 758 mmHg 40%
    15:00 +18°C° 0 mm 3 mps 758 mmHg 39%
    16:00 +18°C° 0 mm 3 mps 757 mmHg 39%
    17:00 +17°C° 0 mm 2 mps 758 mmHg 44%
    18:00 +16°C° 0 mm 2 mps 758 mmHg 49%
    19:00 +14°C° 0 mm 1 mps 758 mmHg 54%
    20:00 +14°C° 0 mm 1 mps 758 mmHg 55%
    21:00 +14°C° 0 mm 1 mps 758 mmHg 56%
    22:00 +14°C° 0 mm 1 mps 758 mmHg 57%
    23:00 +13°C° 0 mm 1 mps 758 mmHg 58%

    23 September, Sunday

    Time Temperature Precipitation Wind Pressure Humidity
    00:00 +13°C° 0 mm 1 mps 757 mmHg 60%
    01:00 +12°C° 0 mm 1 mps 757 mmHg 61%
    02:00 +13°C° 0 mm 1 mps 757 mmHg 59%
    03:00 +13°C° 0 mm 2 mps 757 mmHg 57%
    04:00 +14°C° 0 mm 2 mps 756 mmHg 54%
    05:00 +14°C° 0 mm 2 mps 756 mmHg 54%
    06:00 +14°C° 0 mm 2 mps 755 mmHg 54%
    07:00 +13°C° 0 mm 3 mps 754 mmHg 53%
    08:00 +14°C° 0 mm 3 mps 754 mmHg 51%
    09:00 +15°C° 0 mm 4 mps 753 mmHg 49%
    10:00 +17°C° 0 mm 4 mps 752 mmHg 47%
    11:00 +19°C° 0 mm 4 mps 751 mmHg 48%
    12:00 +20°C° 0 mm 5 mps 750 mmHg 50%
    13:00 +21°C° 0 mm 5 mps 749 mmHg 51%
    14:00 +22°C° 0 mm 6 mps 748 mmHg 51%
    15:00 +24°C° 0 mm 7 mps 747 mmHg 51%
    16:00 +26°C° 0 mm 8 mps 745 mmHg 51%
    17:00 +24°C° 0.1 mm 7 mps 745 mmHg 54%
    18:00 +23°C° 0.1 mm 7 mps 744 mmHg 58%
    19:00 +22°C° 0.1 mm 7 mps 743 mmHg 61%
    20:00 +20°C° 0.6 mm 8 mps 743 mmHg 64%
    21:00 +17°C° 0.6 mm 9 mps 743 mmHg 66%
    22:00 +14°C° 0.6 mm 10 mps 743 mmHg 69%
    23:00 +13°C° 0 mm 10 mps 744 mmHg 66%
    Show more